Regional Weather Roundup
Issued by NWS

Home | Current Version | Previous Version | Graphics & Text | Print | Product List | Glossary Off
Versions: 1 2 3 4 5 6 7 8 9 10 11 12 13 14 15 16 17 18 19 20 21 22 23 24 25 26 27 28 29 30 31 32 33 34 35 36 37 38 39 40 41 42 43 44 45 46 47 48 49 50

000
ASUS43 KMPX 290810
RWRMN
WEATHER ROUNDUP FOR MINNESOTA
NATIONAL WEATHER SERVICE TWIN CITIES/CHANHASSEN MN
300 AM CDT FRI APR 29 2016


NOTE: "FAIR" INDICATES FEW OR NO CLOUDS BELOW 12,000 FEET WITH NO
SIGNIFICANT WEATHER AND/OR OBSTRUCTIONS TO VISIBILITY. N/A MEANS
CURRENT SKY AND/OR WEATHER CONDITIONS ARE NOT AVAILABLE.

MNZ060>063-068>070-290900-
   Twin Cities Metro

CITY           SKY/WX    TMP DP  RH WIND       PRES   REMARKS
TWIN CITIES    CLOUDY    35  34  96 N5        30.15R WCI  31
ST PAUL        CLOUDY    36  35  96 CALM      30.16S
CRYSTAL        FOG       35  33  92 CALM      30.14S VSB 1/2
BLAINE         CLOUDY    37  37 100 CALM      30.15S FOG
EDEN PRAIRIE   CLOUDY    37  34  89 N5        30.13S
SOUTH ST PAUL  CLOUDY    37  36  96 NE3       30.15S
LAKE ELMO      MOCLDY    36  34  93 CALM      30.16S
$$
MNZ001>005-007-008-013>017-022>024-027-028-290900-
   Northwest Minnesota

CITY           SKY/WX    TMP DP  RH WIND       PRES   REMARKS
BEMIDJI        CLOUDY    38  28  67 NE6       30.14S
HALLOCK        CLOUDY    37  25  60 NE5       30.19S
ROSEAU         CLOUDY    37  28  70 CALM      30.19S
WARROAD        CLOUDY    36  30  80 CALM      30.20S
THIEF RVR FALL CLOUDY    39  27  60 E7        30.18S
CROOKSTON      MOCLDY    39  27  60 E9        30.17S
FOSSTON        CLOUDY    37  27  65 NE6       30.16S
DETROIT LAKES  CLOUDY    39  36  87 CALM      30.15S
MOORHEAD       CLOUDY    37  36  93 E5        30.15R
PARK RAPIDS    CLOUDY    37  30  75 CALM      30.14R
MAHNOMEN       FAIR      35  29  79 NE7       30.14S WCI  29
$$
MNZ006-009>011-018-025>026-290900-
   North Central Minnesota

CITY           SKY/WX    TMP DP  RH WIND       PRES   REMARKS
BAUDETTE       PTCLDY    36  28  73 CALM      30.17F
FLAG ISLAND    CLEAR     39  36  87 N3        30.19S
INTL FALLS     CLOUDY    36  31  82 NE5       30.16F
WASKISH        PTCLDY    37  30  75 NE5       30.16S
BIG FORK       CLOUDY    30  27  86 CALM      30.15F
LONGVILLE      CLOUDY    28  27  93 CALM      30.14S
GRAND RAPIDS   CLEAR     30  21  69 CALM      30.16S
CRANE LAKE     CLOUDY    27  27 100 CALM      30.18S
ORR            PTCLDY    30  25  80 CALM      30.13F
COOK           PTCLDY    28  27  93 CALM      30.16S
WALKER         FAIR      37  24  60 CALM      30.14S
$$
MNZ012-019>021-037-290900-
   Northeast Minnesota

CITY           SKY/WX    TMP DP  RH WIND       PRES   REMARKS
DULUTH         CLOUDY    31  25  78 N8        30.13S WCI  23
ELY            CLOUDY    34  28  80 CALM      30.15S
HIBBING        CLEAR     26  24  92 CALM      30.15S
EVELETH        CLOUDY    32  30  93 CALM      30.16S
DULUTH HARBOR  CLOUDY    36  34  93 CALM      30.16S
TWO HARBORS    CLOUDY    37  28  70 N6        30.12S
SILVER BAY     CLOUDY    28  25  86 CALM      30.12S
GRAND MARAIS     N/A     31  27  85 CALM      30.16S
G MARAIS ARPRT CLOUDY    28  21  74 N7        30.14S WCI  21
$$
MNZ029>031-032-039>041-046>048-054>057-064-290900-
   West Central Minnesota

CITY           SKY/WX    TMP DP  RH WIND       PRES   REMARKS
FERGUS FALLS   CLOUDY    39  39 100 SE3       30.14S
WHEATON        CLOUDY    41  39  93 CALM      30.17S
MORRIS         CLOUDY    37  37 100 NE3       30.14F
ALEXANDRIA     CLOUDY    38  36  92 CALM      30.15F
ELBOW LAKE     FAIR      39  37  94 E3        30.16S
WADENA         CLOUDY    36  34  93 CALM      30.15S
GLENWOOD       CLOUDY    36  36 100 N5        30.15S
APPLETON       CLOUDY    39  37  93 CALM      30.15S
BENSON         CLOUDY    37  36  93 NE3       30.15F
ORTONVILLE     CLOUDY    37  36  93 CALM      30.16R
MADISON        PTCLDY    39  37  93 CALM      30.16S
WILLMAR        CLOUDY    39  39 100 CALM      30.16S
$$
MNZ033>034-036-042>043-049>051-058-059-290900-
   Central Minnesota

CITY           SKY/WX    TMP DP  RH WIND       PRES   REMARKS
ST CLOUD       CLOUDY    37  36  96 CALM      30.14S
SAUK CENTRE    FOG       32  32 100 W3        30.15F VSB 1/2
PAYNESVILLE    PTCLDY    36  37 100 CALM      30.15S
AITKIN         CLOUDY    30  27  86 CALM      30.14R
PINE RIVER     CLOUDY    30  27  86 CALM      30.18R
BRAINERD       CLOUDY    33  25  72 CALM      30.15R
STAPLES        CLOUDY    36  36 100 W7        30.15R
LONG PRAIRIE   FAIR      34  34 100 W3        30.15S
LITTLE FALLS   CLOUDY    36  34  93 CALM      30.15S
LITCHFIELD     CLOUDY    39  39 100 CALM      30.15S
BUFFALO        CLOUDY    37  35  94 N3        30.16S
MAPLE LAKE     CLOUDY    39  39  98 CALM      30.15F
HUTCHINSON     CLOUDY    39  37  95 N3        30.16R
$$
MNZ037-044-045-052-053-290900-
   East Central Minnesota

CITY           SKY/WX    TMP DP  RH WIND       PRES   REMARKS
PRINCETON      FOG       37  36  93 CALM      30.15S VSB 1/2
MORA           PTCLDY    34  28  80 CALM      30.16S
CAMBRIDGE      HAZE      36  28  75 CALM      30.13S VSB 1/2
RUSH CITY      CLOUDY    33  29  86 W3        30.14S
MOOSE LAKE     CLOUDY    32  30  93 CALM      30.13S
HINCKLEY       FAIR      32  32 100 N6        30.14S WCI  26
CLOQUET        CLOUDY    28  25  86 CALM      30.14S
MCGREGOR       CLOUDY    32  30  93 CALM      30.16S
$$
MNZ071>073-080-081-089-090-097-098-290900-
   Southwest Minnesota

CITY           SKY/WX    TMP DP  RH WIND       PRES   REMARKS
MONTEVIDEO     CLOUDY    39  39 100 CALM      30.17S
GRANITE FALLS  CLOUDY    40  38  95 CALM      30.17S
CANBY          CLOUDY    42  41  97 CALM      30.17S FOG
REDWOOD FALLS  PTCLDY    36  34  92 CALM      30.14S
OLIVIA         CLOUDY    36  34  93 CALM      30.15S
PIPESTONE      CLOUDY    37  36  93 NE5       30.13R
WINDOM         CLOUDY    37  37 100 CALM      30.13S FOG
WORTHINGTON    CLOUDY    38  36  92 NE5       30.13S
JACKSON        CLOUDY    39  36  87 NE3       30.13R FOG
TRACY          CLOUDY    36  35  98 CALM      30.14S
SLAYTON        CLOUDY    37  37  99 E5        30.14R
$$
MNZ065>067-074>077-082>085-091>093-290900-
   South Central Minnesota

CITY           SKY/WX    TMP DP  RH WIND       PRES   REMARKS
MANKATO        CLOUDY    39  34  81 NE3       30.13S
NEW ULM        CLOUDY    37  37 100 CALM      30.14R
ST JAMES       CLOUDY    34  32  93 CALM      30.14S
FAIRMONT       CLOUDY    39  30  70 CALM      30.12S
GLENCOE        CLOUDY    39  38  99 N3        30.14R
FARIBAULT      PTCLDY    36  36 100 CALM      30.13R
OWATONNA       CLOUDY    37  36  93 CALM      30.13R
WASECA         CLOUDY    37  36  93 NE6       30.14R
ALBERT LEA     CLOUDY    39  39 100 NE3       30.10S
$$
MNZ078>079-086>088-094>096-290900-
   Southeast Minnesota

CITY           SKY/WX    TMP DP  RH WIND       PRES   REMARKS
ROCHESTER      CLOUDY    38  37  97 CALM      30.11R
RED WING       CLOUDY    37  36  93 NE3       30.13S
STANTON        CLOUDY    37  35  90 CALM      30.12S
DODGE CENTER   CLOUDY    36  36 100 CALM      30.11R
WINONA         CLOUDY    37  36  93 CALM      30.12S
AUSTIN         CLOUDY    37  36  93 CALM      30.10S
PRESTON        CLOUDY    37  35  93 CALM      30.10S
$$
ABBREVIATIONS USED IN REMARKS
   TC - TEMPERATURES IN CELSIUS
  WCI - WIND CHILL INDEX
   HX - HEAT INDEX
  VSB - VISIBILITY
$$




USA.gov is the U.S. government's official web portal to all federal, state and local government web resources and services.